Theta_e
322 314 313 311 298 297 292 295 301 301 301 303 303 303 306 312 309 304 326 331 335 334 342 347 346 347 347 346 345 347 346 346 344 343 345 345 344 342 341 339 339 338 334 334 335 334 332 331 331
316 313 313 305 292 287 286 296 297 300 302 301 302 306 308 313 320 319 322 332 335 337 342 345 344 346 346 347 345 347 347 347 345 345 344 343 343 341 339 337 338 337 335 334 333 333 332 331 330
311 311 306 299 290 286 287 295 294 297 298 301 302 312 317 303 315 319 329 335 337 339 343 344 343 346 346 346 346 346 346 345 344 343 342 342 340 338 336 335 337 336 333 333 332 331 331 329 328
309 308 302 295 291 295 295 294 294 295 300 301 299 300 310 308 307 311 321 336 336 338 342 342 343 346 344 345 345 346 345 345 343 342 341 340 338 336 336 335 337 335 333 333 331 330 329 328 327
303 300 292 291 292 296 295 295 294 294 296 298 298 297 314 307 308 309 313 335 334 336 339 342 342 343 344 344 344 345 345 344 343 343 342 341 340 338 338 336 333 333 332 330 330 329 328 328 327
297 294 286 286 289 293 294 295 294 294 295 297 297 296 308 308 307 308 311 333 335 334 336 340 336 337 341 342 342 344 344 343 342 341 341 340 339 338 337 336 332 332 331 331 329 328 327 327 327
294 288 286 286 288 291 293 296 294 294 294 296 298 299 302 304 307 309 312 322 332 334 335 338 341 337 333 337 339 341 342 341 340 339 339 338 338 337 335 335 335 333 332 331 329 328 327 326 326
293 291 287 286 286 288 294 295 297 296 295 299 301 295 297 303 307 307 309 312 315 319 330 334 338 338 340 341 333 335 338 337 337 336 334 332 332 333 332 329 331 330 332 331 329 328 327 326 326
298 288 285 287 289 290 295 294 298 298 296 297 299 299 302 304 305 304 305 307 311 313 316 322 333 337 338 339 337 331 332 332 332 332 329 328 331 332 330 326 328 329 333 332 329 328 328 328 328
291 286 288 292 293 293 295 295 294 295 295 296 297 300 301 301 301 300 301 302 306 309 311 317 319 331 336 337 338 336 339 338 337 336 333 333 328 327 327 323 324 327 325 329 330 329 329 326 328
293 287 292 294 297 297 295 295 296 294 292 295 294 296 298 298 299 299 300 302 303 308 310 312 315 318 325 334 335 336 336 336 335 335 333 329 325 324 325 325 325 326 320 327 329 328 328 327 325
291 294 295 297 297 296 294 296 294 294 295 297 297 298 297 297 297 298 299 301 303 305 308 310 312 314 317 323 334 332 333 332 332 334 333 328 323 321 322 322 324 324 325 325 326 325 324 322 320
291 293 295 296 296 296 296 293 293 293 296 297 297 297 296 297 297 299 300 302 303 304 307 308 310 311 314 318 328 332 332 331 332 330 331 328 325 321 321 321 322 323 323 324 323 322 321 319 319
294 294 294 295 295 296 293 294 294 295 295 295 295 295 296 297 297 298 300 301 303 305 307 309 309 310 313 315 320 331 332 332 329 328 327 326 325 322 321 320 320 321 322 322 322 322 320 319 319
294 290 291 293 294 294 294 290 291 294 294 293 293 295 296 297 298 299 300 303 305 307 307 307 308 310 310 312 318 325 330 331 329 328 327 325 323 322 321 321 320 320 321 321 321 320 320 319 321
289 288 284 290 293 294 292 285 292 294 292 292 293 295 296 298 298 300 302 303 304 306 306 308 309 309 310 311 314 320 330 330 329 326 326 325 323 323 321 320 320 321 320 320 320 319 319 320 320
285 281 283 286 293 292 291 287 291 293 291 291 292 294 295 296 298 300 301 302 303 304 304 305 307 308 309 309 312 318 327 329 329 328 326 325 324 323 322 321 321 321 320 320 320 319 319 319 320
280 281 283 284 288 290 288 288 291 291 291 290 292 293 294 295 296 299 300 301 302 302 303 304 305 306 308 309 313 318 326 328 330 327 327 325 324 323 322 321 321 320 319 319 318 318 318 319 319
286 285 283 285 289 288 288 288 289 290 290 290 291 292 293 295 297 298 299 300 300 301 301 301 302 304 306 308 311 318 322 325 326 327 327 326 324 323 321 320 320 319 319 319 319 318 317 317 319
286 282 281 285 288 289 287 286 289 289 290 291 292 291 293 294 295 296 297 298 298 299 299 301 301 303 305 308 312 317 323 326 326 326 326 326 324 323 320 319 319 319 319 318 317 317 317 318 320
283 281 278 283 286 289 284 281 284 287 289 291 291 292 292 292 292 294 294 295 296 297 298 300 301 302 306 308 312 315 323 325 324 324 325 324 324 323 322 320 320 319 319 318 318 318 318 317 320
282 286 285 285 283 277 283 274 274 282 285 288 289 289 289 290 291 292 293 293 295 296 298 299 300 302 306 308 310 313 319 319 323 323 324 324 323 323 323 321 320 319 320 319 320 319 319 318 317
282 287 286 284 283 284 277 277 276 281 281 285 288 288 288 289 290 291 292 293 295 296 297 298 299 301 305 309 311 315 317 319 320 320 317 316 320 322 322 322 321 320 320 319 317 316 315 314 312
288 285 283 283 283 272 273 275 275 277 281 284 287 287 287 288 289 290 293 294 294 295 296 297 298 299 303 305 308 310 316 311 310 310 309 309 311 313 315 315 314 314 313 312 313 313 312 311 310
286 280 272 271 269 272 278 276 278 281 284 286 287 285 286 286 287 288 290 291 292 292 293 295 296 296 299 302 304 306 307 308 307 308 308 308 308 308 310 312 312 312 312 312 313 311 311 310 309
283 281 274 269 269 272 279 274 280 284 286 288 286 285 286 286 286 287 288 289 290 291 292 293 294 295 297 300 301 302 305 306 306 307 307 307 307 307 309 309 309 309 310 309 309 309 308 307 307
282 279 282 277 273 273 275 279 283 285 284 284 283 284 284 285 285 286 287 288 288 289 291 292 293 294 296 296 298 299 300 301 302 304 305 305 306 306 306 306 305 306 306 306 305 304 303 303 303
283 285 278 276 268 268 272 276 277 282 283 283 282 282 283 285 285 285 286 286 287 289 290 292 292 293 294 295 296 296 297 298 299 299 299 300 301 302 302 302 302 302 302 302 302 300 300 297 297
282 281 281 280 278 272 270 274 281 283 284 284 283 282 283 284 285 285 285 286 286 287 288 289 291 292 292 293 294 294 294 295 296 296 296 296 296 297 296 297 296 296 296 297 296 296 296 294 293
282 281 281 275 273 276 276 276 284 284 285 285 284 282 283 284 284 284 285 285 285 285 287 287 289 290 291 292 293 292 292 293 293 293 293 294 293 294 294 294 293 293 293 293 293 291 291 290 289
Wind_Speed
7 6 2 5 4 3 2 3 2 2 4 3 3 4 2 4 3 2 9 6 11 4 10 11 13 15 15 14 13 13 14 14 15 15 15 16 16 15 14 13 10 9 10 11 11 9 10 10 9
3 3 3 3 5 2 3 3 2 3 5 13 6 1 1 3 5 11 8 19 8 3 6 7 10 13 14 14 13 11 13 13 14 14 14 14 14 14 13 12 10 8 11 11 11 10 9 9 9
0 2 4 4 3 3 2 1 5 7 8 6 5 7 5 9 10 9 13 15 2 5 4 5 8 12 15 15 14 12 12 14 15 15 14 14 13 12 12 11 10 9 10 9 10 9 8 7 6
2 4 5 4 4 2 0 4 5 8 3 5 4 5 6 14 10 14 20 10 3 2 4 6 10 13 13 14 14 13 12 13 13 13 13 14 14 13 12 11 10 10 10 9 8 8 7 5 5
4 3 4 3 2 1 2 3 5 5 2 6 8 6 4 6 16 17 17 9 7 4 3 7 9 11 13 13 13 13 12 12 13 14 13 12 13 13 13 11 11 9 9 8 7 6 6 4 2
5 3 4 1 2 1 1 3 4 5 5 5 8 7 3 12 23 22 19 11 6 4 4 5 7 8 11 12 13 13 13 12 12 15 14 13 12 13 12 12 11 10 10 8 7 5 4 3 2
6 4 4 3 1 1 3 8 3 4 5 6 7 3 7 17 20 19 16 14 11 6 4 6 7 7 9 10 11 11 11 11 12 13 14 13 12 11 12 11 12 12 11 9 7 6 4 3 2
5 5 3 1 1 1 4 7 2 4 2 4 6 5 6 15 19 16 13 13 12 12 11 7 8 6 10 10 11 11 11 11 11 13 12 12 12 11 9 8 12 12 10 11 8 7 5 4 3
2 5 2 3 2 2 3 4 4 3 2 3 4 4 7 15 15 15 14 13 14 12 12 11 11 10 9 10 10 11 11 11 10 11 12 11 6 9 11 8 8 12 10 10 9 8 6 3 1
5 4 5 2 3 2 3 1 4 4 6 5 5 8 9 13 13 15 16 15 15 16 14 10 12 11 8 8 9 10 9 8 7 8 9 8 6 6 9 9 9 8 11 8 8 8 5 3 2
2 3 3 2 2 2 1 2 3 2 3 2 10 16 15 14 13 12 14 13 15 15 12 13 11 12 12 8 6 6 5 5 6 10 9 5 5 3 5 5 5 5 8 4 4 3 3 4 3
6 2 1 1 2 2 3 2 3 4 1 7 7 9 8 12 12 13 14 15 16 15 15 14 14 13 10 8 7 7 8 6 6 8 12 7 5 5 5 4 5 5 3 5 4 3 3 4 4
4 2 1 1 2 3 2 2 3 2 4 6 6 7 8 9 11 10 11 12 12 14 16 16 14 13 12 10 8 8 9 7 7 5 9 8 8 8 6 6 5 5 5 5 4 4 3 4 5
3 2 2 3 3 2 2 1 2 2 7 8 7 8 7 10 12 10 12 13 13 12 14 16 16 15 13 12 11 8 8 8 8 7 8 11 8 7 7 7 6 5 5 5 5 5 4 4 4
3 3 2 2 4 1 0 2 3 4 7 8 10 10 11 11 12 12 11 15 12 10 13 15 17 14 14 13 12 9 8 9 8 8 8 11 11 10 10 8 7 7 6 6 4 5 4 4 4
4 4 2 2 5 2 2 3 2 6 7 11 11 11 13 13 11 13 11 14 13 12 12 15 14 16 15 14 11 10 9 9 10 11 12 14 14 13 10 8 8 7 6 6 5 5 4 5 5
6 2 2 6 3 3 4 3 1 5 7 9 9 12 12 13 13 12 15 14 14 13 13 14 15 15 15 15 12 11 13 10 9 10 9 14 12 11 8 8 7 9 6 6 6 5 5 5 5
3 2 1 3 2 2 3 4 1 4 5 6 9 9 11 14 15 14 15 15 14 15 13 11 12 16 14 12 10 9 10 8 9 8 11 13 10 10 8 7 8 8 6 6 5 7 5 5 5
5 3 3 4 2 3 3 3 2 3 4 6 8 11 13 13 16 12 13 14 14 13 14 14 14 15 12 9 7 7 9 7 5 9 13 12 10 10 9 6 8 7 8 8 9 6 7 5 4
2 2 3 4 3 2 3 6 4 1 3 4 6 6 10 13 14 14 16 16 15 15 15 14 14 14 12 9 7 5 5 5 8 6 9 12 10 11 9 7 7 8 6 7 7 7 3 4 5
3 4 3 3 4 1 7 4 2 3 4 5 4 5 6 9 14 15 15 16 17 18 17 15 15 17 13 12 7 6 3 2 5 8 7 11 14 12 12 8 6 7 6 6 8 7 7 4 3
1 4 3 2 3 2 4 6 5 4 7 4 5 7 7 10 11 12 16 16 18 18 19 20 20 21 14 11 8 9 3 5 4 4 6 6 11 11 10 9 8 5 5 5 5 4 4 3 3
2 4 3 0 1 3 5 2 8 2 5 6 5 6 6 7 9 12 13 15 15 16 17 17 19 19 16 8 3 7 4 2 4 5 7 10 5 7 10 8 6 4 2 4 6 7 5 7 7
3 3 3 3 1 2 4 4 7 5 6 4 3 5 6 7 8 10 11 14 14 16 18 19 20 19 17 11 13 11 9 8 10 9 10 10 8 8 11 15 12 11 10 10 9 9 12 11 8
2 3 4 6 4 4 3 2 11 5 6 5 4 4 5 6 7 8 12 13 14 15 16 16 21 20 19 16 16 16 14 15 14 11 8 10 11 13 12 15 12 11 10 10 8 9 9 7 7
1 3 5 5 2 5 2 6 6 5 3 4 3 2 2 6 6 7 8 10 11 13 14 16 17 21 21 18 18 17 15 11 12 14 12 10 11 12 16 11 14 14 10 12 8 8 7 7 6
2 2 2 6 1 2 4 7 5 2 4 4 5 3 3 4 5 6 7 7 9 10 10 11 14 16 19 19 17 19 18 17 14 15 13 12 12 13 14 14 10 10 10 11 7 6 8 8 7
2 5 3 3 1 5 5 6 6 6 10 8 7 7 5 2 4 5 6 7 8 8 9 10 11 11 12 14 13 13 14 13 13 12 14 15 12 11 12 11 10 11 10 9 8 7 8 9 6
2 2 3 3 3 4 3 7 7 7 9 12 9 8 7 5 3 2 4 5 6 7 8 8 8 10 10 9 8 10 10 11 12 12 12 10 11 10 11 9 10 11 10 9 10 9 9 10 8
2 5 5 5 5 3 1 10 1 6 6 8 9 8 6 6 4 1 3 5 5 6 6 6 7 8 7 7 9 11 11 11 12 11 10 9 10 9 9 9 11 11 11 9 9 9 8 9 9
Wind_Direction
334 324 350 40 66 62 231 244 297 330 331 242 289 218 309 39 13 337 338 360 343 259 180 177 167 167 161 158 157 158 159 160 164 165 162 153 152 151 146 142 147 147 139 141 133 134 142 139 138
350 336 43 88 92 98 265 313 349 296 304 307 297 268 47 88 34 313 343 340 309 215 194 186 165 166 165 158 159 164 164 165 161 162 160 155 148 148 146 149 156 159 138 144 140 140 141 142 148
357 359 85 90 111 188 193 48 289 296 305 338 341 42 38 343 333 340 319 325 271 168 173 189 170 173 169 163 163 169 166 167 165 160 160 152 151 151 154 161 166 154 152 147 150 145 144 151 148
44 23 43 88 194 244 155 344 316 308 317 29 331 74 93 67 353 332 320 334 307 174 168 190 191 180 179 170 168 175 175 178 166 167 168 164 160 161 159 168 190 150 149 158 158 147 152 155 152
35 57 75 85 260 315 41 344 298 333 335 338 345 356 95 39 355 343 339 331 330 296 221 197 207 191 185 179 179 179 184 192 170 176 174 172 165 163 167 170 179 164 156 170 162 158 158 156 156
51 87 68 175 268 6 341 342 301 5 334 343 23 330 101 10 7 343 336 331 327 289 287 255 232 202 191 190 188 190 194 198 192 182 173 175 175 174 174 172 179 175 172 166 161 172 172 169 162
103 84 132 152 241 131 311 333 39 331 319 10 322 353 307 355 347 338 340 357 354 319 272 267 253 233 205 196 191 193 203 200 203 194 178 172 177 183 165 187 168 181 170 170 172 177 191 209 205
99 90 106 104 168 219 339 339 347 38 309 317 356 20 334 330 332 333 338 354 358 7 339 281 263 252 224 201 199 200 201 202 203 200 181 174 171 180 182 181 178 188 169 171 181 187 196 225 264
119 68 141 160 155 290 344 8 323 314 348 57 27 44 306 317 327 343 350 353 351 351 347 336 303 263 241 223 205 207 208 205 204 190 185 174 179 182 180 178 187 197 178 174 188 195 208 208 312
69 97 184 135 144 233 292 7 313 6 12 350 328 331 334 337 344 348 346 338 338 334 333 333 335 310 264 246 219 218 211 210 206 195 182 178 179 189 177 181 185 196 207 189 192 203 202 214 227
41 121 148 186 179 193 304 68 7 9 27 334 314 325 340 342 345 342 334 327 320 318 315 323 322 323 317 259 228 218 202 198 192 187 177 171 171 174 186 179 183 187 209 213 202 213 202 221 238
88 62 100 107 8 50 8 310 101 59 319 306 305 309 321 338 336 331 327 321 321 319 314 317 319 312 306 307 248 232 210 193 190 190 178 172 170 187 190 188 178 175 186 214 229 228 247 243 241
85 178 82 13 61 67 23 37 194 103 307 313 299 304 316 314 314 313 308 311 308 313 317 317 316 308 303 298 285 237 217 196 194 178 182 176 187 188 180 183 184 186 186 211 227 240 246 265 263
132 123 135 44 6 89 39 51 158 346 333 331 326 317 306 318 328 315 324 315 314 312 317 315 311 306 297 291 282 252 215 195 193 191 192 186 193 183 184 181 188 193 198 206 220 231 250 258 257
91 93 348 38 347 120 254 55 31 301 333 327 335 333 338 324 331 334 313 328 320 316 316 315 311 304 299 293 288 276 225 195 179 165 208 194 196 188 181 181 188 197 198 207 221 234 242 249 245
60 59 40 343 3 11 58 284 357 339 352 343 337 344 342 337 331 335 336 329 329 325 324 312 306 306 300 290 281 277 241 197 192 191 187 196 200 191 185 180 185 191 192 199 208 222 238 246 241
20 127 6 325 85 325 48 276 135 356 4 343 345 345 337 334 340 345 338 330 333 329 326 322 314 307 302 291 283 268 252 203 199 196 188 195 206 196 194 187 184 179 189 201 208 219 224 243 252
205 103 252 247 303 346 269 264 160 358 359 345 330 330 341 340 340 339 336 332 335 335 326 321 311 306 301 291 278 266 249 204 195 191 189 192 195 183 183 208 180 173 183 201 200 218 211 233 252
125 136 203 253 257 309 228 287 333 2 349 335 318 359 349 344 347 336 335 348 332 328 328 328 320 314 304 289 273 264 230 187 200 195 202 187 193 182 191 201 182 176 186 195 197 200 217 228 228
104 113 283 293 287 222 326 291 200 197 266 263 295 316 341 346 354 350 354 338 339 335 334 324 326 313 302 286 274 288 242 187 183 185 190 196 172 170 182 201 196 188 183 192 189 189 198 212 188
171 152 233 242 320 264 324 327 299 262 275 269 306 301 312 330 339 349 348 342 339 343 335 333 337 326 304 286 274 266 222 220 184 178 190 186 178 177 173 184 194 190 181 198 198 194 197 218 214
241 184 186 296 34 289 22 286 290 257 284 266 306 322 335 345 340 344 340 346 348 341 340 345 347 333 316 290 251 246 209 187 189 163 181 167 174 177 173 174 174 200 179 194 212 181 184 189 233
170 151 183 227 149 308 336 82 268 335 279 277 303 322 339 336 340 339 346 344 341 346 344 351 344 333 328 320 18 226 146 71 84 91 85 66 98 166 155 156 158 179 175 115 105 98 83 101 93
147 122 54 60 97 359 248 113 279 199 210 257 271 322 339 339 345 345 349 348 354 353 350 347 347 346 344 7 44 60 108 95 88 87 86 80 74 83 84 91 86 85 85 74 85 91 99 92 72
114 70 338 353 10 226 183 84 246 230 224 218 255 310 338 339 344 349 353 349 347 353 348 346 348 354 357 21 47 53 71 81 81 78 89 95 87 83 69 87 92 84 72 75 68 83 74 73 95
159 164 154 225 265 290 154 238 253 208 188 223 220 276 346 341 349 347 351 348 349 346 348 350 353 354 359 17 43 48 57 69 69 72 81 73 81 77 81 85 74 74 73 73 59 66 65 58 64
168 187 154 108 41 7 217 278 280 157 212 218 236 264 309 331 349 345 346 359 345 351 347 350 356 358 2 8 26 38 42 50 57 66 70 76 71 73 76 65 67 77 63 69 71 72 68 65 54
177 156 72 7 47 296 280 271 243 213 224 217 220 227 254 286 334 3 353 359 352 351 351 3 2 4 4 12 23 34 38 44 50 56 56 55 56 62 68 68 60 65 62 67 74 67 68 70 51
146 208 68 118 149 191 294 262 213 218 204 199 205 206 208 229 253 355 352 359 355 354 1 358 5 10 11 16 25 50 52 54 55 59 60 62 67 64 71 73 69 67 67 60 66 63 64 70 64
225 208 168 137 218 228 153 270 239 236 215 186 188 197 197 204 218 249 21 1 14 358 0 5 1 22 14 19 33 40 43 47 54 54 56 55 65 62 74 79 75 66 63 64 73 76 68 68 62